| time (UTC) | temp F | wind direction | speed MPH | gust MPH | rain 1hr in | rain 24hr in | rain mn in | humidity % | barometer mb |
| 20260507101502 | 55 | 27 | 0.0 | 2.0 | 0.00 | 0.00 | 0.00 | 84 | 1019.4 |
| 20260507100001 | 55 | 53 | 0.0 | 5.0 | 0.00 | 0.00 | 0.00 | 83 | 1019.3 |
| 20260507094501 | 55 | 107 | 0.0 | 1.0 | 0.00 | 0.00 | 0.00 | 83 | 1019.5 |
| 20260507093108 | 55 | 68 | 0.0 | 2.0 | 0.00 | 0.00 | 0.00 | 83 | 1019.5 |
| 20260507091557 | 55 | 126 | 0.0 | 0.0 | 0.00 | 0.00 | 0.00 | 83 | 1019.5 |
| 20260507090056 | 55 | 69 | 0.0 | 2.0 | 0.00 | 0.00 | 0.00 | 82 | 1019.4 |
| 20260507084554 | 56 | 185 | 0.0 | 0.0 | 0.00 | 0.00 | 0.00 | 82 | 1019.4 |
| 20260507083051 | 56 | 41 | 0.0 | 3.0 | 0.00 | 0.00 | 0.00 | 82 | 1019.4 |
| 20260507081549 | 56 | 60 | 0.0 | 4.0 | 0.00 | 0.00 | 0.00 | 82 | 1019.2 |
| 20260507080051 | 56 | 60 | 0.0 | 0.0 | 0.00 | 0.00 | 0.00 | 82 | 1019.2 |
| 20260507074547 | 56 | 67 | 0.0 | 0.0 | 0.00 | 0.00 | 0.00 | 82 | 1019.1 |
| 20260507073046 | 56 | 148 | 0.0 | 0.0 | 0.00 | 0.00 | 0.00 | 81 | 1019.1 |
| 20260507073015 | 56 | 148 | 0.0 | 0.0 | 0.00 | 0.00 | 0.00 | 81 | 1019.1 |
| 20260507071602 | 56 | 43 | 0.0 | 1.0 | 0.00 | 0.00 | 0.00 | 81 | 1018.9 |
| 20260507070043 | 56 | 59 | 0.0 | 2.0 | 0.00 | 0.00 | 0.00 | 81 | 1018.8 |
| 20260507064535 | 56 | 54 | 0.0 | 4.0 | 0.00 | 0.00 | 0.00 | 81 | 1018.9 |
| 20260507063039 | 56 | 49 | 0.0 | 1.0 | 0.00 | 0.00 | 0.00 | 81 | 1018.8 |
| 20260507061600 | 56 | 61 | 0.0 | 1.0 | 0.00 | 0.00 | 0.00 | 81 | 1018.8 |
| 20260507060058 | 56 | 52 | 0.0 | 2.0 | 0.00 | 0.00 | 0.00 | 80 | 1018.8 |
| 20260507054658 | 56 | 62 | 0.0 | 4.0 | 0.00 | 0.00 | 0.00 | 80 | 1018.7 |
| 20260507053122 | 56 | 54 | 0.0 | 2.0 | 0.00 | 0.00 | 0.00 | 80 | 1018.7 |
| 20260507051601 | 57 | 57 | 0.0 | 1.0 | 0.00 | 0.00 | 0.00 | 79 | 1018.6 |
| 20260507050053 | 57 | 53 | 0.0 | 2.0 | 0.00 | 0.00 | 0.00 | 79 | 1018.6 |
| 20260507044556 | 57 | 194 | 0.0 | 0.0 | 0.00 | 0.00 | 0.00 | 79 | 1018.7 |
| 20260507043053 | 57 | 193 | 0.0 | 0.0 | 0.00 | 0.00 | 0.00 | 78 | 1018.6 |
| 20260507041552 | 57 | 200 | 0.0 | 0.0 | 0.00 | 0.00 | 0.00 | 78 | 1018.6 |
| 20260507040050 | 57 | 200 | 0.0 | 0.0 | 0.00 | 0.00 | 0.00 | 77 | 1018.5 |
| 20260507034550 | 57 | 36 | 0.0 | 0.0 | 0.00 | 0.00 | 0.00 | 77 | 1018.6 |
| 20260507033051 | 58 | 51 | 0.0 | 1.0 | 0.00 | 0.00 | 0.00 | 76 | 1018.6 |
| 20260507031553 | 58 | 124 | 0.0 | 0.0 | 0.00 | 0.00 | 0.00 | 75 | 1018.6 |
| 20260507030055 | 58 | 150 | 0.0 | 0.0 | 0.00 | 0.00 | 0.00 | 75 | 1018.6 |
| 20260507024550 | 58 | 126 | 0.0 | 1.0 | 0.00 | 0.00 | 0.00 | 75 | 1018.7 |
| 20260507023045 | 58 | 63 | 0.0 | 1.0 | 0.00 | 0.00 | 0.00 | 74 | 1018.6 |
| 20260507021545 | 59 | 157 | 0.0 | 0.0 | 0.00 | 0.00 | 0.00 | 74 | 1018.5 |
| 20260507020044 | 59 | 148 | 0.0 | 0.0 | 0.00 | 0.00 | 0.00 | 74 | 1018.5 |
| 20260507014551 | 59 | 222 | 0.0 | 0.0 | 0.00 | 0.00 | 0.00 | 73 | 1018.4 |
| 20260507013048 | 59 | 63 | 0.0 | 0.0 | 0.00 | 0.00 | 0.00 | 74 | 1018.4 |
| 20260507011543 | 59 | 116 | 0.0 | 0.0 | 0.00 | 0.00 | 0.00 | 74 | 1018.5 |
| 20260507010041 | 59 | 108 | 0.0 | 0.0 | 0.00 | 0.00 | 0.00 | 73 | 1018.6 |
| 20260507004545 | 59 | 160 | 0.0 | 0.0 | 0.00 | 0.00 | 0.00 | 74 | 1018.7 |
| 20260507003040 | 60 | 65 | 0.0 | 1.0 | 0.00 | 0.00 | 0.00 | 73 | 1018.6 |
| 20260507001547 | 60 | 239 | 0.0 | 2.0 | 0.00 | 0.00 | 0.00 | 73 | 1018.5 |
| 20260507000037 | 60 | 191 | 0.0 | 1.0 | 0.00 | 0.00 | 0.00 | 73 | 1018.5 |
| 20260506234536 | 60 | 166 | 0.0 | 1.0 | 0.00 | 0.00 | 0.00 | 73 | 1018.5 |
| 20260506233037 | 59 | 124 | 0.0 | 2.0 | 0.00 | 0.00 | 0.00 | 73 | 1018.4 |
| 20260506231534 | 59 | 77 | 0.0 | 4.0 | 0.00 | 0.00 | 0.00 | 76 | 1018.4 |
| 20260506230036 | 59 | 47 | 1.0 | 5.0 | 0.00 | 0.00 | 0.00 | 75 | 1018.5 |
| 20260506224534 | 59 | 30 | 0.0 | 4.0 | 0.00 | 0.00 | 0.00 | 77 | 1018.7 |
| 20260506223018 | 60 | 228 | 0.0 | 1.0 | 0.00 | 0.00 | 0.00 | 75 | 1018.6 |
| 20260506221515 | 59 | 106 | 0.0 | 3.0 | 0.00 | 0.00 | 0.00 | 76 | 1018.7 |
| 20260506220028 | 59 | 17 | 0.0 | 1.0 | 0.00 | 0.00 | 0.00 | 77 | 1018.7 |
| 20260506214512 | 59 | 128 | 0.0 | 1.0 | 0.00 | 0.00 | 0.00 | 77 | 1018.8 |
| 20260506213011 | 58 | 66 | 0.0 | 5.0 | 0.00 | 0.00 | 0.00 | 78 | 1018.7 |
| 20260506211521 | 59 | 204 | 0.0 | 4.0 | 0.00 | 0.00 | 0.00 | 78 | 1018.8 |
| 20260506210013 | 58 | 45 | 0.0 | 2.0 | 0.00 | 0.00 | 0.00 | 78 | 1018.9 |
| 20260506204510 | 59 | 198 | 0.0 | 3.0 | 0.00 | 0.00 | 0.00 | 77 | 1019.0 |
| 20260506203018 | 59 | 56 | 0.0 | 5.0 | 0.00 | 0.00 | 0.00 | 77 | 1019.0 |
| 20260506201508 | 59 | 88 | 0.0 | 2.0 | 0.00 | 0.00 | 0.00 | 78 | 1019.0 |
| 20260506200007 | 59 | 58 | 0.0 | 3.0 | 0.00 | 0.00 | 0.00 | 78 | 1018.9 |
| 20260506194505 | 58 | 109 | 0.0 | 4.0 | 0.00 | 0.00 | 0.00 | 78 | 1018.9 |
| 20260506193004 | 58 | 65 | 0.0 | 9.0 | 0.00 | 0.00 | 0.00 | 79 | 1019.0 |
| 20260506191502 | 58 | 67 | 0.0 | 6.0 | 0.00 | 0.00 | 0.00 | 80 | 1019.0 |
| 20260506190004 | 58 | 56 | 0.0 | 5.0 | 0.00 | 0.00 | 0.00 | 81 | 1018.9 |
| 20260506184501 | 58 | 133 | 0.0 | 4.0 | 0.00 | 0.00 | 0.00 | 79 | 1018.9 |
| 20260506183123 | 59 | 200 | 0.0 | 0.0 | 0.00 | 0.00 | 0.00 | 78 | 1018.8 |
| 20260506181603 | 58 | 157 | 0.0 | 4.0 | 0.00 | 0.00 | 0.00 | 78 | 1018.8 |
| 20260506180115 | 58 | 101 | 0.0 | 4.0 | 0.00 | 0.00 | 0.00 | 81 | 1018.6 |
| 20260506174555 | 56 | 87 | 0.0 | 4.0 | 0.00 | 0.00 | 0.00 | 82 | 1018.7 |
| 20260506173121 | 57 | 148 | 0.0 | 5.0 | 0.00 | 0.00 | 0.00 | 83 | 1018.6 |
| 20260506171553 | 56 | 66 | 0.0 | 4.0 | 0.00 | 0.00 | 0.00 | 83 | 1018.6 |
| 20260506170051 | 56 | 67 | 0.0 | 5.0 | 0.00 | 0.00 | 0.00 | 82 | 1018.6 |
| 20260506164549 | 56 | 60 | 1.0 | 6.0 | 0.00 | 0.00 | 0.00 | 82 | 1018.4 |
| 20260506163053 | 57 | 59 | 0.0 | 2.0 | 0.00 | 0.00 | 0.00 | 82 | 1018.3 |
| 20260506161554 | 56 | 67 | 1.0 | 6.0 | 0.00 | 0.00 | 0.00 | 83 | 1018.2 |
| 20260506160045 | 56 | 44 | 1.0 | 5.0 | 0.00 | 0.00 | 0.00 | 84 | 1018.3 |
| 20260506154547 | 55 | 120 | 0.0 | 0.0 | 0.00 | 0.00 | 0.00 | 84 | 1018.3 |
| 20260506153044 | 55 | 96 | 0.0 | 1.0 | 0.00 | 0.00 | 0.00 | 85 | 1018.3 |
| 20260506151546 | 55 | 126 | 0.0 | 1.0 | 0.00 | 0.00 | 0.00 | 85 | 1018.2 |
| 20260506150043 | 55 | 173 | 0.0 | 4.0 | 0.00 | 0.00 | 0.00 | 86 | 1018.2 |
| 20260506144558 | 55 | 56 | 0.0 | 6.0 | 0.00 | 0.00 | 0.00 | 86 | 1017.9 |
| 20260506143037 | 54 | 52 | 0.0 | 4.0 | 0.00 | 0.00 | 0.00 | 86 | 1017.6 |
| 20260506141537 | 54 | 51 | 0.0 | 3.0 | 0.00 | 0.00 | 0.00 | 86 | 1017.4 |
| 20260506140034 | 54 | 68 | 0.0 | 4.0 | 0.00 | 0.00 | 0.00 | 87 | 1017.5 |
| 20260506134532 | 54 | 130 | 0.0 | 2.0 | 0.00 | 0.00 | 0.00 | 87 | 1017.2 |
| 20260506133037 | 54 | 165 | 0.0 | 4.0 | 0.00 | 0.00 | 0.00 | 87 | 1017.2 |
| 20260506131530 | 54 | 129 | 0.0 | 1.0 | 0.00 | 0.00 | 0.00 | 87 | 1017.0 |
| 20260506130028 | 54 | 63 | 0.0 | 3.0 | 0.00 | 0.00 | 0.00 | 87 | 1017.0 |
| 20260506124525 | 54 | 289 | 0.0 | 2.0 | 0.00 | 0.00 | 0.00 | 87 | 1016.8 |
| 20260506123023 | 54 | 142 | 0.0 | 1.0 | 0.00 | 0.00 | 0.00 | 87 | 1016.6 |
| 20260506121526 | 55 | 139 | 0.0 | 4.0 | 0.00 | 0.00 | 0.00 | 86 | 1016.6 |
| 20260506120027 | 55 | 138 | 0.0 | 6.0 | 0.00 | 0.00 | 0.00 | 85 | 1016.5 |
| 20260506114519 | 55 | 84 | 0.0 | 1.0 | 0.00 | 0.00 | 0.00 | 85 | 1016.6 |
| 20260506113018 | 55 | 196 | 0.0 | 0.0 | 0.00 | 0.00 | 0.00 | 86 | 1016.5 |
| 20260506111513 | 56 | 33 | 0.0 | 3.0 | 0.00 | 0.00 | 0.00 | 85 | 1016.2 |
| 20260506110014 | 56 | 70 | 0.0 | 4.0 | 0.00 | 0.00 | 0.00 | 85 | 1016.0 |
| 20260506104509 | 56 | 65 | 0.0 | 0.0 | 0.00 | 0.00 | 0.00 | 85 | 1015.9 |
| 20260506103006 | 56 | 64 | 0.0 | 1.0 | 0.00 | 0.00 | 0.00 | 85 | 1015.9 |